Location: City of Moscow
(46.7306°N, 116.9989°W)
Time: 12:56:58
(UTC+00:00)

Cosmos 1626 Rocket - Pass Details

Date: 16 March 2026
Orbit: 595 x 624 km, 82.5° (Epoch: 18 April)

Event Time Altitude Azimuth Distance (km) Brightness Sun altitude
Rises 11:27:20 0° 1° (N) 2,899 7.4 -25.9°
Reaches altitude 10° 11:29:54 10° 15° (NNE) 1,983 6.7 -25.5°
Maximum altitude 11:33:33 25° 71° (ENE) 1,241 5.8 -24.9°
Drops below altitude 10° 11:37:09 10° 127° (SE) 1,955 6.4 -24.4°
Sets 11:39:40 0° 141° (SE) 2,848 7.1 -24.0°
